Regional Weather Roundup
Issued by NWS Charleston, SC

Home | Current Version | Previous Version | Text Only | Print | Product List | Glossary On
Versions: 1 2 3 4 5 6 7 8 9 10 11 12 13 14 15 16 17 18 19 20 21 22 23 24 25 26 27 28 29 30 31 32 33 34 35 36 37 38 39 40 41 42 43 44 45 46 47 48 49 50
000
ASUS42 KCHS 150927
RWRCHS

Regional Weather Roundup
National Weather Service Charleston SC
400 AM EST FRI DEC 15 2017

NOTE: "fair" indicates few or no clouds below 12,000 feet with no
significant weather and/or obstructions to visibility.

Not all stations are quality controlled. Use data with caution,
especially dewpoint observations.

SCZ027-030-031-034>040-042>050-151000-
...Southeast South Carolina...

CITY           SKY/WX    TMP DP  RH WIND       PRES   REMARKS
N Charleston   CLOUDY    48  40  73 W6        30.00F
Waterfront Prk   N/A     52  43  71 VRB2      29.86S
Mount Pleasant FAIR      46  41  81 CALM      30.00S
Johns Island   FAIR      48  43  81 CALM      30.00S
Pinopolis        N/A     48  43  81 SW5       29.91F
Moncks Corner  FAIR      41  39  93 CALM      30.00S
Summerville    FAIR      41  39  93 CALM      30.01S
Beaufort MCAS  CLOUDY    46  42  86 SW6       30.01S
Beaufort Arpt  FAIR      50  41  71 W5        30.01R
Hilton Head Is CLOUDY    50  39  66 W3        30.02S
Walterboro     MOSUNNY   41  39  93 CALM      30.01S
Allendale      FAIR      43  41  93 CALM      29.99S

...Southern Midlands and Pee Dee...

CITY           SKY/WX    TMP DP  RH WIND       PRES   REMARKS
Georgetown     FAIR      43  43 100 CALM      29.99F
Kingstree      FAIR      39  37  93 CALM      29.98F
Orangeburg     PTCLDY    43  37  79 CALM      29.98F
Barnwell         N/A     43  39  87 CALM      29.99S
Aiken          FAIR      37  34  87 W3        30.01R
Manning        FAIR      41  30  65 MISG      29.99S
Columbia       CLOUDY    45  38  76 W3        29.97F
Sumter         CLOUDY    43  38  82 CALM      29.95F
Florence       CLOUDY    43  37  79 CALM      29.98S
Myrtle Beach   CLOUDY    47  40  76 W5        30.00S
N Myrtle Beach CLOUDY    49  40  71 W5        29.98S

$$

GAZ063-065-086>088-099>101-113>116-118-119-134>141-150-151000-
...Southeast Georgia...

CITY           SKY/WX    TMP DP  RH WIND       PRES   REMARKS
Savannah Arpt  CLOUDY    47  40  76 CALM      30.02S
Hunter AAF     CLOUDY    46  39  76 SW7       29.99S
Fort Stewart   CLOUDY    44  42  90 CALM      30.00S
Statesboro     MOCLDY    43  39  86 CALM      30.01R
Sylvania       MOSUNNY   43  43 100 CALM      30.02S
Claxton        FAIR      43  42  95 CALM      30.01F

...CSRA, Central and far Southeast Georgia...

CITY           SKY/WX    TMP DP  RH WIND       PRES   REMARKS
Thomson        CLOUDY    39  37  92 CALM      30.03S
Augusta-Bush   CLOUDY    40  38  93 CALM      29.99F
Augusta-Daniel CLOUDY    46  37  71 CALM      29.99S
Swainsboro     FAIR      41  41 100 CALM      30.01F
Vidalia        CLOUDY    45  41  87 CALM      30.01F
Eastman        FAIR      41  35  79 CALM      30.03F
Hazlehurst     FAIR      47  38  71 CALM      30.00F
Alma           CLOUDY    44  41  89 CALM      30.02R
Waycross       CLOUDY    46  42  88 CALM      30.02S
Jesup          NOT AVBL
Baxley         FAIR      41  41 100 CALM      30.01F
Brunswick      CLOUDY    46  41  81 CALM      30.03R
Saint Simons   CLOUDY    51  46  83 SW3       30.01F

$$

SCZ027-028-034-036>038-045-046-048>050-GAZ119-141-151000-
...Lake and Supplemental Coastal Observations...

STATION/POSITION TIME  TEMP    WIND        PRES    WAVE   SWELL
                       AIR SEA DIR/SP/G            HT/PER HT/PER/DIR
                 (UTC) (F)     (DEG/KT/KT) (MB)    (FT/S) (FT/S/D)
Winyah Bay       0845   47        CALM     1016.0S
Lake Murray      0830   49     290/  2/  4 1014.2S
ACE Basin NERRS  0845   47        CALM     1016.0S
Fort Pulaski     0900   52 53  260/  3/  4 1016.5
Sapelo Island    0900   50        CALM     1016.0

$$

ANZ835-935-AMZ111-154-330-350-352-354-370-450-454-472-151000-
...C-MAN and Buoy Observations...

STATION/POSITION TIME  TEMP    WIND        PRES    WAVE   SWELL
                       AIR SEA DIR/SP/G            HT/PER HT/PER/DIR
                 (UTC) (F)     (DEG/KT/KT) (MB)    (FT/S) (FT/S/D)
Buoy 41004       0910   63 73  270/ 14/ 16 1015.2
Buoy 41008       0850   57 59  240/  4/  6 1016.5F   1/ 4
Folly Beach CMAN 0900   51     250/  3/  4 1016.3F
Capers Nearshore 0908   51 55  250/  8/ 10 1015.4F


STATION/POSITION TIME  TEMP    WIND        PRES    WAVE   SWELL
                       AIR SEA DIR/SP/G            HT/PER HT/PER/DIR
                 (UTC) (F)     (DEG/KT/KT) (MB)    (FT/S) (FT/S/D)
5E St. Marys GA  0900      62                N/A     1/10
Frying Pan Buoy  0910   61 67  260/ 14/ 17 1015.2
Buoy 41025       0910   60 74   80/  4/  8 1015.2
Cape Lookout NC  0900           10/  6/  7 1015.7S
Buoy 41002       0850   71 74  260/ 16/ 19 1015.6R   7/ 8   3/120/11
Buoy 41010       NOT AVBL
St Augustine FL  0900   57 63  240/  5/  6 1017.0F


$$



USA.gov is the U.S. government's official web portal to all federal, state and local government web resources and services.